Wind_Speed
13 13 13 13 13 14 14 15 15 16 17 18 19 19 20 21 22 23 24 25 25 26 27 28 29 30 31 32 33 34 36 36 37 37 38 39 40 41 42 43 43 43 44 44
16 16 15 15 15 16 17 17 17 17 18 19 20 20 21 21 23 24 25 26 26 26 27 28 29 30 31 32 33 34 35 37 37 37 38 39 40 41 42 43 44 44 45 46
19 19 19 18 18 19 19 19 20 19 20 21 21 22 23 23 24 24 25 26 27 28 29 30 30 31 32 33 34 34 35 36 37 38 39 40 40 41 42 43 44 45 45 46
23 22 23 22 21 22 22 21 22 22 22 23 24 24 25 26 26 27 27 28 29 30 30 31 31 32 33 34 34 35 36 38 39 39 40 41 41 42 43 43 43 44 44 45
25 25 25 24 24 24 24 24 24 25 25 25 25 26 26 26 27 27 28 29 30 31 32 32 33 34 34 36 37 37 38 38 39 40 41 42 43 43 43 43 43 43 44 44
29 29 29 27 27 27 28 27 27 27 27 27 27 27 27 28 29 30 31 32 32 33 34 34 35 36 36 37 38 39 39 40 41 42 43 43 43 43 43 44 43 44 44 44
32 33 32 31 30 30 30 30 30 29 29 29 29 30 30 30 31 32 33 34 34 35 35 36 37 38 38 39 40 41 41 42 43 44 44 44 44 44 43 43 43 44 44 44
35 35 34 33 33 32 32 32 32 32 32 32 32 32 33 33 34 34 35 36 37 37 37 38 39 40 40 41 42 43 44 44 44 45 45 44 44 44 44 43 43 43 43 44
37 37 36 36 35 35 35 35 34 34 34 34 34 35 35 35 35 36 37 38 39 39 40 41 41 42 42 43 44 45 45 45 45 44 44 44 44 44 44 44 43 43 43 43
39 38 38 37 37 37 37 37 37 37 37 37 37 37 38 38 38 38 39 40 41 41 42 42 43 43 44 45 45 45 45 45 45 44 44 43 43 43 43 43 43 43 43 43
41 40 40 39 38 38 39 39 39 39 39 39 39 39 39 39 40 40 41 42 42 43 43 43 44 44 45 45 45 44 44 44 44 44 44 43 43 43 43 43 43 43 43 43
42 42 43 41 40 40 40 40 40 40 40 41 41 41 41 41 41 41 42 42 43 43 43 44 44 44 45 45 44 44 43 43 44 43 43 43 43 43 43 43 43 43 43 42
45 44 44 43 42 41 42 42 41 41 41 41 41 42 42 42 42 42 42 43 43 44 44 44 44 44 44 44 43 43 43 43 44 43 43 43 43 43 43 43 42 42 41 41
45 45 45 44 44 43 43 43 42 42 42 42 42 43 43 43 43 43 43 43 44 44 44 45 45 44 44 43 43 43 43 43 44 44 43 43 43 43 43 42 41 40 40 40
45 46 45 45 44 44 44 44 43 43 43 44 44 44 44 44 44 44 44 44 44 45 45 45 45 44 44 44 44 43 43 43 43 42 42 43 42 42 41 40 40 39 39 39
45 45 45 45 45 45 44 44 44 44 44 45 45 45 45 45 45 45 45 45 45 45 45 44 44 44 43 43 43 42 42 41 41 41 40 40 40 39 38 38 38 37 37 36
45 45 45 45 46 45 45 45 45 45 45 45 45 45 45 45 45 46 46 46 46 45 44 44 43 43 42 42 41 40 40 40 39 39 38 38 38 37 36 36 36 35 35 34
44 44 44 45 45 45 45 45 45 45 45 45 45 45 45 45 45 45 45 45 45 44 44 43 43 42 41 41 40 40 39 38 38 37 36 36 36 36 36 35 34 34 33 32
43 44 43 44 44 44 44 44 44 45 45 45 45 46 46 46 46 45 45 45 44 43 43 43 42 41 41 40 40 39 39 38 38 37 36 36 35 35 34 33 32 32 32 32
43 44 44 43 44 44 44 44 44 44 45 45 46 46 46 46 46 46 46 45 44 44 43 43 42 41 40 40 39 39 38 37 37 36 35 35 34 33 32 31 31 30 31 31
43 44 44 44 44 44 44 44 44 45 45 46 46 47 47 47 46 46 46 45 44 44 44 43 42 41 40 39 39 38 37 36 36 35 35 34 33 32 31 30 30 30 30 30
44 45 45 45 45 45 45 46 46 46 47 47 47 46 47 46 46 46 45 45 44 43 43 42 41 40 40 39 39 38 37 36 35 35 34 33 33 31 30 29 29 29 29 29
46 46 46 46 46 46 47 47 47 48 47 47 47 47 46 46 46 45 44 43 43 42 41 41 40 39 38 38 37 37 35 35 34 34 33 33 32 31 30 29 29 29 29 28
46 46 46 46 47 47 47 47 47 47 47 46 46 45 45 45 44 44 43 42 42 41 40 40 39 38 37 36 36 35 35 34 34 33 33 32 31 30 29 29 28 28 27 27
44 44 44 45 46 47 47 47 47 47 46 45 44 43 43 43 43 42 42 42 41 40 39 38 38 37 36 35 34 34 33 33 33 32 31 30 29 29 28 28 27 27 26 26
45 45 45 46 46 46 46 46 46 45 44 44 43 42 41 41 41 41 41 40 39 38 37 37 36 36 35 34 33 33 32 32 31 30 29 28 27 27 26 25 25 25 25 24
45 45 45 45 45 46 46 46 45 44 44 43 42 41 40 40 40 39 39 38 37 36 36 35 35 35 34 33 33 32 31 30 29 28 27 27 26 25 25 24 23 23 22 22
Wind_Direction
301 297 294 291 287 286 285 283 281 280 279 279 280 278 275 272 271 270 269 270 270 270 270 270 271 272 273 273 274 275 276 276 276 276 276 276 276 276 276 275 275 275 275 276
298 296 293 290 289 287 288 288 287 285 284 283 282 282 280 277 275 273 273 273 273 273 272 272 273 274 275 276 276 277 278 277 277 277 277 278 278 278 278 277 277 276 276 277
295 294 293 291 290 289 289 288 287 286 285 283 283 283 282 280 278 277 277 276 275 275 275 275 275 276 277 278 278 279 280 279 278 278 279 279 280 279 279 279 278 278 277 277
294 292 291 294 290 289 289 287 286 286 285 284 284 283 282 280 280 279 279 278 277 277 278 277 277 278 279 280 280 281 281 281 280 280 280 280 281 281 280 280 279 279 279 278
293 292 291 291 291 290 288 286 286 286 285 284 283 283 282 281 281 280 281 280 280 279 279 279 278 279 280 281 282 282 283 283 282 281 281 282 282 281 281 280 280 279 279 279
290 290 290 291 290 288 287 286 286 285 284 283 283 282 282 281 281 281 282 282 281 281 280 280 280 280 281 282 283 283 283 283 283 283 282 283 282 281 281 280 280 280 279 279
288 288 288 290 289 288 286 287 285 284 283 283 282 282 282 281 281 281 282 282 283 283 282 282 282 282 283 283 283 284 283 283 283 284 283 283 282 282 281 281 280 280 280 280
288 288 289 288 287 286 285 284 284 283 282 282 282 281 281 281 282 282 282 282 282 283 283 283 284 284 284 284 284 285 284 283 284 284 283 282 282 281 281 281 281 281 281 280
286 287 287 286 285 285 283 282 281 281 281 281 280 280 280 280 281 281 281 282 282 283 284 284 285 285 285 285 285 285 285 284 284 284 284 283 282 281 281 281 281 281 281 281
285 285 284 283 283 282 281 281 280 280 280 280 279 279 279 280 281 281 282 282 283 283 284 285 286 286 286 286 286 286 285 284 284 283 283 283 282 282 281 281 281 281 281 281
283 284 282 281 280 280 280 280 279 279 279 279 279 279 280 281 282 282 283 284 284 285 285 286 286 287 287 287 286 286 285 284 283 283 283 282 282 282 281 281 281 281 281 282
280 280 279 279 278 278 278 279 279 279 280 280 280 281 282 283 283 283 284 285 285 286 286 287 287 288 287 287 286 286 284 284 284 283 282 281 281 281 281 281 281 281 282 282
278 278 278 278 277 277 277 278 279 279 280 280 281 281 282 283 284 284 285 285 285 286 287 288 288 288 288 287 286 285 284 284 283 283 282 281 281 281 281 281 280 281 281 282
276 277 277 277 276 276 277 278 278 279 279 280 281 281 282 283 284 285 286 286 287 288 288 288 288 288 288 287 286 285 284 284 283 283 282 282 281 281 281 280 279 280 280 281
274 275 276 276 276 276 277 277 278 279 280 280 281 282 283 284 284 285 286 287 288 289 289 288 288 288 287 287 286 285 285 284 284 284 283 282 282 281 281 279 279 279 280 280
273 274 275 276 276 276 276 277 278 279 280 281 282 283 284 284 284 285 286 288 289 289 288 288 288 287 287 286 286 285 285 285 285 284 284 283 282 281 281 280 280 280 280 280
274 274 275 275 276 276 276 277 278 279 280 281 282 283 284 284 285 286 287 288 288 288 288 288 287 287 286 286 285 285 285 285 285 285 285 284 283 282 281 281 280 280 279 279
275 275 276 277 277 277 277 278 278 279 281 282 282 283 284 285 286 286 287 287 287 287 287 287 286 286 286 285 285 284 284 284 285 285 285 285 284 282 281 281 279 278 278 278
276 277 278 279 279 278 279 279 279 280 281 282 282 283 284 285 286 286 287 287 286 285 285 285 285 284 284 285 284 284 284 284 285 285 285 285 285 283 282 281 279 277 276 275
276 277 278 279 279 279 279 280 280 281 281 281 282 283 283 284 285 285 285 285 285 284 285 284 284 283 283 283 284 284 284 285 285 285 284 284 285 284 282 280 279 277 276 276
276 276 277 278 278 279 280 280 281 281 282 282 282 282 283 283 284 284 284 283 283 284 284 284 283 282 282 282 283 284 284 284 284 284 283 284 285 284 281 279 278 278 277 277
276 276 277 278 279 279 279 280 281 281 281 281 282 282 283 283 283 283 283 283 283 283 284 283 282 281 281 281 282 283 283 283 283 282 282 283 283 281 280 278 278 278 277 277
277 278 278 278 279 279 280 280 281 281 282 282 283 283 283 283 283 282 282 283 283 283 283 283 282 281 281 281 281 281 280 281 280 280 281 281 281 279 278 277 277 278 277 277
277 278 278 278 279 280 280 281 282 282 283 283 283 283 283 283 282 282 282 282 282 282 282 281 281 281 281 281 280 279 279 279 280 280 281 280 279 278 275 275 275 276 276 276
279 279 279 279 280 281 282 282 282 282 283 284 284 283 283 283 283 283 282 282 282 282 281 280 280 280 281 281 280 279 278 279 279 279 278 278 277 276 274 273 273 273 274 274
279 280 281 281 282 283 283 284 284 284 284 284 283 283 283 283 284 283 282 281 281 280 279 279 279 279 280 279 279 278 278 279 279 278 276 275 274 274 272 271 271 272 273 273
279 280 281 281 282 283 283 284 284 284 283 283 283 282 282 283 283 283 282 281 280 279 279 278 277 277 278 277 278 278 278 278 277 275 274 273 271 271 271 269 269 269 271 273
Height
5709 5707 5706 5705 5703 5702 5701 5700 5699 5699 5697 5696 5694 5693 5693 5692 5691 5690 5689 5688 5687 5686 5685 5684 5683 5682 5681 5680 5679 5677 5676 5674 5673 5671 5670 5668 5667 5665 5663 5662 5660 5658 5657 5655
5705 5703 5701 5700 5699 5697 5696 5695 5694 5693 5692 5690 5689 5687 5686 5685 5684 5683 5682 5681 5680 5679 5678 5677 5676 5674 5673 5671 5670 5668 5667 5664 5663 5661 5659 5657 5656 5654 5652 5650 5648 5646 5644 5643
5700 5698 5696 5696 5695 5692 5691 5690 5688 5687 5687 5684 5683 5681 5680 5678 5677 5676 5675 5674 5672 5671 5670 5669 5667 5666 5664 5662 5660 5659 5657 5655 5653 5651 5649 5647 5645 5643 5640 5638 5636 5634 5632 5630
5694 5693 5691 5693 5689 5687 5685 5683 5682 5680 5679 5677 5676 5674 5672 5671 5669 5668 5667 5666 5664 5663 5662 5660 5658 5657 5655 5653 5651 5649 5647 5645 5642 5640 5638 5636 5633 5631 5628 5626 5624 5621 5619 5617
5687 5685 5684 5684 5682 5679 5678 5677 5675 5673 5671 5670 5668 5666 5665 5663 5661 5660 5658 5657 5656 5654 5652 5650 5649 5647 5645 5643 5641 5639 5637 5634 5632 5629 5627 5624 5622 5619 5616 5614 5611 5609 5607 5605
5679 5676 5676 5677 5674 5671 5670 5669 5667 5665 5663 5661 5659 5659 5657 5654 5652 5651 5649 5647 5646 5644 5642 5640 5638 5636 5635 5632 5630 5627 5625 5623 5620 5617 5615 5612 5609 5606 5604 5601 5599 5597 5595 5592
5669 5667 5667 5667 5664 5662 5662 5661 5658 5655 5654 5652 5650 5649 5648 5645 5643 5641 5639 5637 5635 5634 5632 5629 5627 5625 5623 5621 5618 5616 5613 5611 5608 5605 5602 5599 5596 5594 5591 5589 5587 5585 5582 5580
5660 5658 5659 5656 5654 5653 5651 5649 5647 5645 5644 5642 5641 5639 5637 5635 5633 5631 5629 5627 5624 5623 5620 5618 5615 5614 5611 5609 5606 5603 5600 5598 5595 5592 5589 5586 5584 5581 5579 5576 5574 5572 5569 5567
5650 5650 5647 5645 5643 5641 5639 5638 5636 5635 5633 5632 5630 5628 5626 5624 5622 5619 5617 5615 5613 5611 5608 5605 5603 5600 5598 5596 5593 5590 5587 5584 5582 5579 5576 5573 5571 5568 5566 5564 5561 5559 5557 5554
5638 5638 5635 5633 5631 5629 5628 5626 5625 5623 5622 5620 5618 5616 5614 5612 5610 5608 5605 5603 5600 5598 5595 5593 5590 5587 5584 5582 5579 5576 5573 5571 5568 5565 5563 5560 5558 5555 5553 5551 5548 5546 5544 5542
5625 5625 5623 5621 5619 5617 5615 5614 5612 5611 5609 5607 5605 5603 5601 5599 5597 5595 5592 5590 5587 5585 5582 5579 5576 5573 5570 5568 5565 5562 5560 5557 5554 5552 5549 5547 5545 5542 5540 5538 5535 5533 5531 5529
5613 5612 5609 5608 5607 5605 5603 5601 5599 5598 5596 5594 5592 5590 5588 5586 5584 5582 5579 5577 5574 5571 5569 5566 5563 5560 5557 5554 5551 5549 5546 5543 5541 5538 5536 5534 5532 5529 5527 5525 5523 5520 5518 5516
5598 5596 5594 5594 5593 5591 5590 5588 5586 5585 5583 5581 5579 5577 5575 5573 5571 5568 5566 5563 5561 5558 5555 5552 5549 5546 5543 5540 5537 5535 5532 5530 5527 5525 5523 5520 5518 5516 5514 5512 5509 5507 5505 5503
5583 5581 5581 5580 5579 5578 5576 5575 5573 5572 5570 5568 5566 5564 5562 5560 5557 5555 5552 5550 5547 5544 5541 5538 5535 5532 5529 5526 5524 5521 5518 5516 5514 5511 5509 5507 5505 5503 5501 5499 5497 5495 5493 5491
5569 5567 5567 5566 5565 5564 5563 5561 5560 5558 5556 5554 5552 5550 5548 5546 5543 5541 5538 5536 5533 5530 5527 5524 5521 5519 5515 5513 5510 5507 5505 5503 5500 5498 5496 5493 5491 5489 5487 5486 5484 5483 5481 5479
5555 5554 5553 5552 5551 5550 5549 5547 5546 5544 5542 5540 5538 5536 5534 5532 5529 5527 5524 5522 5519 5517 5514 5511 5508 5505 5502 5499 5497 5494 5492 5490 5487 5485 5483 5480 5478 5476 5475 5473 5472 5470 5469 5467
5541 5540 5539 5538 5537 5536 5535 5533 5532 5530 5528 5526 5524 5522 5520 5517 5515 5513 5510 5508 5505 5502 5499 5497 5494 5492 5489 5486 5484 5482 5479 5477 5475 5472 5470 5468 5466 5464 5463 5461 5460 5459 5458 5456
5526 5526 5525 5524 5523 5522 5520 5519 5517 5515 5513 5512 5510 5508 5506 5503 5501 5499 5496 5494 5491 5489 5486 5483 5480 5478 5476 5473 5471 5469 5467 5465 5463 5461 5459 5457 5455 5453 5451 5450 5449 5448 5447 5445
5513 5512 5511 5510 5509 5507 5506 5504 5502 5501 5499 5497 5495 5493 5491 5489 5487 5485 5482 5480 5477 5475 5473 5470 5467 5465 5463 5461 5459 5457 5455 5453 5451 5449 5447 5445 5444 5442 5440 5439 5438 5437 5436 5435
5499 5498 5497 5496 5494 5493 5491 5490 5488 5486 5484 5482 5480 5479 5477 5475 5472 5470 5468 5466 5463 5460 5459 5457 5455 5453 5451 5449 5447 5445 5443 5441 5439 5438 5436 5434 5433 5431 5429 5428 5427 5426 5425 5425
5485 5484 5483 5482 5480 5479 5477 5475 5473 5472 5469 5467 5465 5463 5462 5460 5458 5455 5453 5452 5450 5447 5445 5443 5441 5439 5438 5436 5435 5433 5431 5429 5428 5426 5425 5423 5422 5421 5419 5418 5417 5416 5415 5415
5471 5470 5468 5467 5465 5464 5462 5460 5458 5456 5454 5452 5450 5448 5446 5445 5443 5441 5439 5437 5435 5433 5431 5429 5427 5426 5424 5423 5422 5421 5419 5418 5416 5415 5414 5412 5411 5410 5409 5408 5407 5406 5406 5405
5456 5454 5453 5452 5450 5449 5447 5445 5443 5441 5439 5437 5435 5433 5431 5429 5428 5426 5425 5423 5420 5419 5417 5416 5414 5412 5411 5410 5409 5408 5407 5406 5405 5404 5403 5401 5400 5399 5399 5398 5397 5397 5396 5395
5440 5439 5438 5436 5435 5433 5432 5430 5428 5425 5424 5422 5421 5419 5416 5415 5413 5411 5409 5408 5407 5405 5403 5402 5400 5399 5398 5397 5397 5396 5395 5394 5393 5393 5392 5391 5390 5389 5388 5388 5388 5387 5387 5386
5426 5424 5423 5422 5420 5418 5416 5414 5412 5411 5409 5408 5406 5404 5402 5400 5398 5397 5395 5394 5392 5391 5390 5389 5387 5386 5386 5385 5385 5384 5383 5383 5382 5381 5381 5380 5379 5379 5378 5378 5378 5378 5378 5377
5411 5410 5408 5407 5405 5403 5401 5399 5397 5396 5395 5393 5392 5391 5388 5386 5384 5383 5381 5380 5378 5377 5376 5376 5375 5374 5374 5373 5373 5373 5372 5372 5371 5370 5370 5369 5369 5369 5369 5369 5369 5369 5369 5369
5397 5395 5394 5393 5391 5389 5386 5384 5383 5382 5380 5378 5378 5377 5375 5373 5371 5369 5368 5367 5366 5365 5364 5363 5363 5362 5362 5362 5362 5362 5361 5361 5360 5360 5360 5359 5359 5360 5360 5360 5360 5361 5361 5361